PIMOHWEATHER Station Historical Data
Daily Summary for March 30, 2020 Units:  Metric    English   Both
Daily Weekly Monthly Yearly
  High: Low: Average:
Temperature: 35.0 °C 26.0 °C 30.2 °C
Dew Point: 26.0 °C 21.0 °C 23.2 °C
Humidity: 78% 57% 67%
Wind Speed: 24km/h 0km/h 8km/h
Wind Gust: 28km/h - -
Wind- - SSE
Pressure: 1011.2 hPa 1006.8 hPa -
Precipitation: 0.00 mm    
 
 
Tabular Data for March 30, 2020
Time Temperature Dew Point Pressure Wind Wind Speed Wind Gust Humidity Rainfall Rate (Hourly) solar
00:04 28.0 °C 23.0 °C 1008.8 hPa East 9 km/h 16 km/h 72% 0.00 mm 0.00 W/m2
00:09 28.0 °C 23.0 °C 1008.8 hPa ESE 8 km/h 8 km/h 72% 0.00 mm 0.00 W/m2
00:14 28.0 °C 23.0 °C 1008.8 hPa East 8 km/h 12 km/h 71% 0.00 mm 0.00 W/m2
00:19 28.0 °C 23.0 °C 1008.8 hPa ESE 6 km/h 8 km/h 71% 0.00 mm 0.00 W/m2
00:24 28.0 °C 23.0 °C 1008.5 hPa East 10 km/h 12 km/h 71% 0.00 mm 0.00 W/m2
00:29 28.0 °C 23.0 °C 1008.8 hPa ENE 9 km/h 12 km/h 71% 0.00 mm 0.00 W/m2
00:34 28.0 °C 23.0 °C 1008.8 hPa East 9 km/h 12 km/h 71% 0.00 mm 0.00 W/m2
00:39 28.0 °C 22.0 °C 1008.5 hPa ESE 8 km/h 12 km/h 70% 0.00 mm 0.00 W/m2
00:44 28.0 °C 22.0 °C 1008.5 hPa East 9 km/h 12 km/h 70% 0.00 mm 0.00 W/m2
00:49 28.0 °C 22.0 °C 1008.5 hPa ENE 8 km/h 12 km/h 70% 0.00 mm 0.00 W/m2
00:54 28.0 °C 22.0 °C 1008.5 hPa East 9 km/h 12 km/h 70% 0.00 mm 0.00 W/m2
00:59 28.0 °C 22.0 °C 1008.5 hPa East 5 km/h 8 km/h 70% 0.00 mm 0.00 W/m2
01:04 28.0 °C 22.0 °C 1008.5 hPa East 3 km/h 4 km/h 70% 0.00 mm 0.00 W/m2
01:09 28.0 °C 22.0 °C 1008.5 hPa SE 5 km/h 8 km/h 70% 0.00 mm 0.00 W/m2
01:14 28.0 °C 22.0 °C 1008.1 hPa SE 9 km/h 12 km/h 69% 0.00 mm 0.00 W/m2
01:19 28.0 °C 22.0 °C 1008.5 hPa ESE 9 km/h 12 km/h 69% 0.00 mm 0.00 W/m2
01:24 28.0 °C 22.0 °C 1008.1 hPa ESE 10 km/h 12 km/h 69% 0.00 mm 0.00 W/m2
01:29 28.0 °C 22.0 °C 1008.5 hPa SE 4 km/h 4 km/h 69% 0.00 mm 0.00 W/m2
01:34 28.0 °C 22.0 °C 1008.5 hPa ESE 5 km/h 8 km/h 69% 0.00 mm 0.00 W/m2
01:39 28.0 °C 22.0 °C 1008.1 hPa NNW 5 km/h 8 km/h 69% 0.00 mm 0.00 W/m2
01:44 28.0 °C 22.0 °C 1008.1 hPa East 6 km/h 8 km/h 69% 0.00 mm 0.00 W/m2
01:49 28.0 °C 22.0 °C 1008.1 hPa ESE 10 km/h 16 km/h 69% 0.00 mm 0.00 W/m2
01:54 28.0 °C 22.0 °C 1008.1 hPa ESE 7 km/h 12 km/h 69% 0.00 mm 0.00 W/m2
01:59 28.0 °C 22.0 °C 1008.1 hPa East 10 km/h 16 km/h 69% 0.00 mm 0.00 W/m2
02:04 28.0 °C 22.0 °C 1008.1 hPa ESE 5 km/h 8 km/h 69% 0.00 mm 0.00 W/m2
02:09 28.0 °C 22.0 °C 1008.1 hPa ENE 5 km/h 8 km/h 69% 0.00 mm 0.00 W/m2
02:14 28.0 °C 22.0 °C 1008.1 hPa East 6 km/h 8 km/h 69% 0.00 mm 0.00 W/m2
02:19 28.0 °C 22.0 °C 1008.1 hPa WSW 4 km/h 8 km/h 69% 0.00 mm 0.00 W/m2
02:24 28.0 °C 22.0 °C 1008.1 hPa East 6 km/h 8 km/h 69% 0.00 mm 0.00 W/m2
02:29 28.0 °C 22.0 °C 1007.8 hPa ESE 4 km/h 8 km/h 70% 0.00 mm 0.00 W/m2
02:34 28.0 °C 22.0 °C 1008.1 hPa NNE 4 km/h 4 km/h 70% 0.00 mm 0.00 W/m2
02:39 28.0 °C 22.0 °C 1007.8 hPa ESE 6 km/h 8 km/h 70% 0.00 mm 0.00 W/m2
02:44 28.0 °C 22.0 °C 1008.1 hPa NE 6 km/h 8 km/h 70% 0.00 mm 0.00 W/m2
02:49 28.0 °C 22.0 °C 1007.8 hPa ENE 3 km/h 4 km/h 70% 0.00 mm 0.00 W/m2
02:54 28.0 °C 22.0 °C 1007.8 hPa ENE 4 km/h 4 km/h 70% 0.00 mm 0.00 W/m2
02:59 28.0 °C 22.0 °C 1007.8 hPa NE 1 km/h 4 km/h 70% 0.00 mm 0.00 W/m2
03:04 28.0 °C 22.0 °C 1007.8 hPa NNE 3 km/h 4 km/h 71% 0.00 mm 0.00 W/m2
03:09 28.0 °C 22.0 °C 1007.8 hPa NNE 6 km/h 8 km/h 71% 0.00 mm 0.00 W/m2
03:14 28.0 °C 22.0 °C 1007.8 hPa North 2 km/h 4 km/h 71% 0.00 mm 0.00 W/m2
03:19 28.0 °C 22.0 °C 1008.1 hPa North 4 km/h 8 km/h 73% 0.00 mm 0.00 W/m2
03:24 28.0 °C 22.0 °C 1007.8 hPa North 5 km/h 8 km/h 73% 0.00 mm 0.00 W/m2
03:29 27.0 °C 22.0 °C 1008.1 hPa North 4 km/h 8 km/h 74% 0.00 mm 0.00 W/m2
03:34 27.0 °C 22.0 °C 1007.8 hPa North 5 km/h 8 km/h 74% 0.00 mm 0.00 W/m2
03:39 27.0 °C 22.0 °C 1008.1 hPa North 3 km/h 4 km/h 74% 0.00 mm 0.00 W/m2
03:44 27.0 °C 22.0 °C 1008.1 hPa NNE 3 km/h 4 km/h 74% 0.00 mm 0.00 W/m2
03:49 27.0 °C 22.0 °C 1008.1 hPa NNE 4 km/h 4 km/h 74% 0.00 mm 0.00 W/m2
03:54 27.0 °C 22.0 °C 1008.1 hPa Calm     74% 0.00 mm 0.00 W/m2
03:59 27.0 °C 22.0 °C 1008.1 hPa NNE 3 km/h 4 km/h 74% 0.00 mm 0.00 W/m2
04:04 27.0 °C 22.0 °C 1008.1 hPa North 2 km/h 4 km/h 74% 0.00 mm 0.00 W/m2
04:09 27.0 °C 22.0 °C 1008.1 hPa NNE 3 km/h 4 km/h 74% 0.00 mm 0.00 W/m2
04:14 27.0 °C 22.0 °C 1008.1 hPa North 4 km/h 4 km/h 73% 0.00 mm 0.00 W/m2
04:19 27.0 °C 22.0 °C 1008.1 hPa NNE 1 km/h 4 km/h 74% 0.00 mm 0.00 W/m2
04:24 27.0 °C 22.0 °C 1008.1 hPa Calm     74% 0.00 mm 0.00 W/m2
04:29 27.0 °C 22.0 °C 1008.1 hPa Calm     73% 0.00 mm 0.00 W/m2
04:34 27.0 °C 22.0 °C 1008.1 hPa Calm     73% 0.00 mm 0.00 W/m2
04:39 28.0 °C 22.0 °C 1008.1 hPa Calm     73% 0.00 mm 0.00 W/m2
04:44 27.0 °C 22.0 °C 1008.5 hPa NNE 3 km/h 4 km/h 73% 0.00 mm 0.00 W/m2
04:49 27.0 °C 22.0 °C 1008.1 hPa NNE 4 km/h 4 km/h 73% 0.00 mm 0.00 W/m2
04:54 27.0 °C 22.0 °C 1008.5 hPa Calm   4 km/h 73% 0.00 mm 0.00 W/m2
04:59 27.0 °C 22.0 °C 1008.8 hPa NNE 3 km/h 4 km/h 74% 0.00 mm 0.00 W/m2
05:04 27.0 °C 22.0 °C 1008.5 hPa North 4 km/h 8 km/h 74% 0.00 mm 0.00 W/m2
05:09 27.0 °C 22.0 °C 1008.8 hPa North 5 km/h 8 km/h 75% 0.00 mm 0.00 W/m2
05:14 27.0 °C 22.0 °C 1008.8 hPa NNE 4 km/h 4 km/h 75% 0.00 mm 0.00 W/m2
05:19 27.0 °C 22.0 °C 1008.8 hPa North 5 km/h 8 km/h 75% 0.00 mm 0.00 W/m2
05:24 27.0 °C 22.0 °C 1008.8 hPa North 7 km/h 8 km/h 76% 0.00 mm 0.00 W/m2
05:29 27.0 °C 22.0 °C 1009.1 hPa North 7 km/h 8 km/h 76% 0.00 mm 0.00 W/m2
05:34 27.0 °C 22.0 °C 1009.1 hPa North 6 km/h 8 km/h 76% 0.00 mm 0.00 W/m2
05:39 27.0 °C 22.0 °C 1009.1 hPa North 5 km/h 8 km/h 76% 0.00 mm 0.00 W/m2
05:44 27.0 °C 22.0 °C 1009.5 hPa NNE 6 km/h 8 km/h 76% 0.00 mm 0.00 W/m2
05:49 27.0 °C 22.0 °C 1009.5 hPa North 8 km/h 8 km/h 77% 0.00 mm 0.00 W/m2
05:54 27.0 °C 22.0 °C 1009.5 hPa North 5 km/h 8 km/h 77% 0.00 mm 2.59 W/m2
05:59 27.0 °C 22.0 °C 1009.5 hPa NE 2 km/h 4 km/h 77% 0.00 mm 6.08 W/m2
06:04 27.0 °C 23.0 °C 1009.8 hPa North 3 km/h 4 km/h 78% 0.00 mm 11.30 W/m2
06:09 27.0 °C 23.0 °C 1009.8 hPa North 4 km/h 4 km/h 78% 0.00 mm 18.71 W/m2
06:14 27.0 °C 23.0 °C 1009.8 hPa North 6 km/h 8 km/h 78% 0.00 mm 23.49 W/m2
06:19 27.0 °C 23.0 °C 1009.8 hPa North 6 km/h 8 km/h 78% 0.00 mm 28.08 W/m2
06:24 27.0 °C 23.0 °C 1009.8 hPa North 9 km/h 12 km/h 78% 0.00 mm 33.83 W/m2
06:29 26.0 °C 22.0 °C 1010.2 hPa NNE 8 km/h 8 km/h 78% 0.00 mm 36.17 W/m2
06:34 26.0 °C 22.0 °C 1009.8 hPa NNE 8 km/h 12 km/h 78% 0.00 mm 39.88 W/m2
06:39 26.0 °C 22.0 °C 1010.2 hPa North 9 km/h 12 km/h 78% 0.00 mm 43.67 W/m2
06:44 27.0 °C 23.0 °C 1010.2 hPa North 8 km/h 12 km/h 78% 0.00 mm 137.65 W/m2
06:49 27.0 °C 23.0 °C 1010.2 hPa NNE 8 km/h 12 km/h 78% 0.00 mm 158.59 W/m2
06:54 27.0 °C 23.0 °C 1010.2 hPa North 5 km/h 8 km/h 78% 0.00 mm 172.07 W/m2
06:59 27.0 °C 23.0 °C 1010.2 hPa North 8 km/h 8 km/h 77% 0.00 mm 181.30 W/m2
07:04 28.0 °C 23.0 °C 1010.5 hPa North 9 km/h 12 km/h 76% 0.00 mm 187.83 W/m2
07:09 28.0 °C 23.0 °C 1010.5 hPa North 14 km/h 16 km/h 76% 0.00 mm 196.30 W/m2
07:14 27.0 °C 23.0 °C 1010.5 hPa North 13 km/h 16 km/h 77% 0.00 mm 207.62 W/m2
07:19 27.0 °C 23.0 °C 1010.5 hPa North 12 km/h 12 km/h 77% 0.00 mm 216.36 W/m2
07:24 28.0 °C 23.0 °C 1010.5 hPa North 10 km/h 12 km/h 77% 0.00 mm 223.65 W/m2
07:29 28.0 °C 23.0 °C 1010.5 hPa North 9 km/h 12 km/h 76% 0.00 mm 236.25 W/m2
07:34 29.0 °C 23.0 °C 1010.5 hPa NNE 8 km/h 8 km/h 75% 0.00 mm 242.12 W/m2
07:39 29.0 °C 23.0 °C 1010.8 hPa North 8 km/h 8 km/h 74% 0.00 mm 249.41 W/m2
07:44 29.0 °C 24.0 °C 1010.5 hPa North 10 km/h 12 km/h 73% 0.00 mm 258.91 W/m2
07:49 29.0 °C 24.0 °C 1010.8 hPa North 8 km/h 12 km/h 73% 0.00 mm 269.31 W/m2
07:54 29.0 °C 24.0 °C 1010.8 hPa North 8 km/h 8 km/h 72% 0.00 mm 277.63 W/m2
07:59 30.0 °C 24.0 °C 1010.8 hPa North 7 km/h 8 km/h 71% 0.00 mm 282.35 W/m2
08:04 30.0 °C 24.0 °C 1010.8 hPa ESE 3 km/h 4 km/h 70% 0.00 mm 290.32 W/m2
08:09 30.0 °C 23.0 °C 1010.8 hPa NNW 8 km/h 12 km/h 70% 0.00 mm 301.82 W/m2
08:14 30.0 °C 23.0 °C 1010.8 hPa SSW 8 km/h 8 km/h 70% 0.00 mm 306.59 W/m2
08:19 30.0 °C 24.0 °C 1010.8 hPa NW 9 km/h 12 km/h 70% 0.00 mm 309.31 W/m2
08:24 31.0 °C 24.0 °C 1010.8 hPa NNE 5 km/h 8 km/h 69% 0.00 mm 319.86 W/m2
08:29 31.0 °C 24.0 °C 1010.8 hPa SSW 4 km/h 8 km/h 67% 0.00 mm 327.64 W/m2
08:34 32.0 °C 24.0 °C 1010.8 hPa WSW 5 km/h 8 km/h 65% 0.00 mm 334.66 W/m2
08:39 32.0 °C 24.0 °C 1010.8 hPa SSW 5 km/h 8 km/h 64% 0.00 mm 340.48 W/m2
08:44 32.0 °C 24.0 °C 1011.2 hPa NNW 2 km/h 4 km/h 64% 0.00 mm 344.64 W/m2
08:49 32.0 °C 24.0 °C 1010.8 hPa ENE 6 km/h 8 km/h 65% 0.00 mm 354.77 W/m2
08:54 32.0 °C 24.0 °C 1010.8 hPa NNE 6 km/h 8 km/h 64% 0.00 mm 357.73 W/m2
08:59 31.0 °C 24.0 °C 1010.8 hPa North 9 km/h 12 km/h 66% 0.00 mm 361.55 W/m2
09:04 32.0 °C 24.0 °C 1010.8 hPa ESE 6 km/h 8 km/h 65% 0.00 mm 369.21 W/m2
09:09 32.0 °C 24.0 °C 1010.5 hPa East 5 km/h 8 km/h 63% 0.00 mm 378.80 W/m2
09:14 33.0 °C 24.0 °C 1010.5 hPa North 4 km/h 8 km/h 62% 0.00 mm 391.91 W/m2
09:19 32.0 °C 24.0 °C 1010.5 hPa ESE 9 km/h 12 km/h 63% 0.00 mm 401.77 W/m2
09:24 32.0 °C 24.0 °C 1010.5 hPa NNE 9 km/h 12 km/h 63% 0.00 mm 434.36 W/m2
09:29 33.0 °C 24.0 °C 1010.8 hPa SE 6 km/h 12 km/h 62% 0.00 mm 452.69 W/m2
09:34 33.0 °C 25.0 °C 1010.5 hPa North 8 km/h 12 km/h 65% 0.00 mm 467.91 W/m2
09:39 33.0 °C 25.0 °C 1010.5 hPa WSW 12 km/h 12 km/h 63% 0.00 mm 505.17 W/m2
09:44 33.0 °C 25.0 °C 1010.5 hPa SW 5 km/h 8 km/h 65% 0.00 mm 500.30 W/m2
09:49 32.0 °C 25.0 °C 1010.5 hPa West 10 km/h 12 km/h 66% 0.00 mm 311.71 W/m2
09:54 31.0 °C 24.0 °C 1010.8 hPa WNW 11 km/h 16 km/h 66% 0.00 mm 442.56 W/m2
09:59 31.0 °C 24.0 °C 1010.5 hPa WNW 14 km/h 16 km/h 66% 0.00 mm 416.53 W/m2
10:04 31.0 °C 24.0 °C 1010.5 hPa NW 20 km/h 24 km/h 68% 0.00 mm 225.04 W/m2
10:09 31.0 °C 24.0 °C 1010.5 hPa WNW 12 km/h 16 km/h 68% 0.00 mm 191.13 W/m2
10:14 31.0 °C 25.0 °C 1010.5 hPa SSW 11 km/h 16 km/h 68% 0.00 mm 458.39 W/m2
10:19 31.0 °C 25.0 °C 1010.5 hPa South 14 km/h 20 km/h 69% 0.00 mm 487.75 W/m2
10:24 31.0 °C 25.0 °C 1010.5 hPa SSW 18 km/h 20 km/h 70% 0.00 mm 232.90 W/m2
10:29 31.0 °C 25.0 °C 1010.5 hPa SSW 18 km/h 24 km/h 71% 0.00 mm 532.67 W/m2
10:34 31.0 °C 25.0 °C 1010.5 hPa SSW 14 km/h 16 km/h 70% 0.00 mm 494.85 W/m2
10:39 31.0 °C 25.0 °C 1010.5 hPa SSE 10 km/h 12 km/h 69% 0.00 mm 520.58 W/m2
10:44 32.0 °C 25.0 °C 1010.2 hPa SW 8 km/h 12 km/h 68% 0.00 mm 407.82 W/m2
10:49 32.0 °C 25.0 °C 1010.2 hPa West 12 km/h 12 km/h 68% 0.00 mm 197.89 W/m2
10:54 31.0 °C 24.0 °C 1010.5 hPa North 13 km/h 16 km/h 67% 0.00 mm 225.97 W/m2
10:59 31.0 °C 24.0 °C 1010.2 hPa WNW 11 km/h 16 km/h 67% 0.00 mm 521.07 W/m2
11:04 32.0 °C 25.0 °C 1010.2 hPa SW 7 km/h 12 km/h 67% 0.00 mm 562.01 W/m2
11:09 32.0 °C 25.0 °C 1010.2 hPa WSW 9 km/h 12 km/h 65% 0.00 mm 563.70 W/m2
11:14 33.0 °C 25.0 °C 1010.2 hPa WSW 11 km/h 12 km/h 65% 0.00 mm 577.32 W/m2
11:19 33.0 °C 25.0 °C 1009.8 hPa SW 13 km/h 16 km/h 63% 0.00 mm 649.87 W/m2
11:24 33.0 °C 25.0 °C 1009.8 hPa WNW 10 km/h 12 km/h 63% 0.00 mm 594.79 W/m2
11:29 33.0 °C 25.0 °C 1009.5 hPa WNW 15 km/h 24 km/h 64% 0.00 mm 337.67 W/m2
11:34 32.0 °C 25.0 °C 1009.5 hPa NW 18 km/h 20 km/h 66% 0.00 mm 412.10 W/m2
11:39 33.0 °C 25.0 °C 1009.5 hPa WSW 8 km/h 12 km/h 64% 0.00 mm 612.17 W/m2
11:44 33.0 °C 25.0 °C 1009.5 hPa SW 9 km/h 12 km/h 65% 0.00 mm 256.95 W/m2
11:49 32.0 °C 25.0 °C 1009.5 hPa WSW 9 km/h 12 km/h 64% 0.00 mm 239.19 W/m2
11:54 32.0 °C 25.0 °C 1009.5 hPa NW 13 km/h 16 km/h 65% 0.00 mm 299.62 W/m2
11:59 32.0 °C 25.0 °C 1009.1 hPa WNW 10 km/h 12 km/h 65% 0.00 mm 415.42 W/m2
12:04 32.0 °C 25.0 °C 1009.1 hPa SSW 6 km/h 12 km/h 65% 0.00 mm 269.87 W/m2
12:09 33.0 °C 25.0 °C 1009.1 hPa SW 4 km/h 8 km/h 64% 0.00 mm 642.46 W/m2
12:14 34.0 °C 25.0 °C 1009.1 hPa SSW 12 km/h 16 km/h 63% 0.00 mm 662.74 W/m2
12:19 33.0 °C 25.0 °C 1009.1 hPa South 10 km/h 16 km/h 64% 0.00 mm 398.08 W/m2
12:24 33.0 °C 25.0 °C 1008.8 hPa SSE 14 km/h 16 km/h 64% 0.00 mm 566.80 W/m2
12:29 33.0 °C 25.0 °C 1008.8 hPa South 13 km/h 16 km/h 64% 0.00 mm 656.01 W/m2
12:34 33.0 °C 25.0 °C 1008.8 hPa SW 8 km/h 12 km/h 65% 0.00 mm 626.28 W/m2
12:39 33.0 °C 25.0 °C 1008.8 hPa NW 15 km/h 16 km/h 62% 0.00 mm 648.62 W/m2
12:44 34.0 °C 25.0 °C 1008.8 hPa SSW 15 km/h 20 km/h 62% 0.00 mm 648.65 W/m2
12:49 34.0 °C 25.0 °C 1008.5 hPa SW 9 km/h 12 km/h 62% 0.00 mm 341.09 W/m2
12:54 33.0 °C 25.0 °C 1008.5 hPa WSW 14 km/h 20 km/h 64% 0.00 mm 252.67 W/m2
12:59 33.0 °C 25.0 °C 1008.5 hPa SW 9 km/h 16 km/h 65% 0.00 mm 649.99 W/m2
13:04 33.0 °C 25.0 °C 1008.5 hPa SSW 10 km/h 16 km/h 63% 0.00 mm 533.70 W/m2
13:09 33.0 °C 26.0 °C 1008.1 hPa SW 11 km/h 16 km/h 64% 0.00 mm 564.58 W/m2
13:14 33.0 °C 25.0 °C 1008.1 hPa SW 10 km/h 12 km/h 65% 0.00 mm 624.52 W/m2
13:19 33.0 °C 25.0 °C 1008.1 hPa WSW 10 km/h 12 km/h 64% 0.00 mm 307.45 W/m2
13:24 33.0 °C 25.0 °C 1008.1 hPa West 10 km/h 16 km/h 65% 0.00 mm 602.60 W/m2
13:29 33.0 °C 25.0 °C 1008.1 hPa SW 8 km/h 16 km/h 64% 0.00 mm 441.41 W/m2
13:34 33.0 °C 25.0 °C 1007.8 hPa SSW 9 km/h 12 km/h 64% 0.00 mm 585.62 W/m2
13:39 33.0 °C 25.0 °C 1007.8 hPa South 8 km/h 12 km/h 64% 0.00 mm 296.64 W/m2
13:44 33.0 °C 25.0 °C 1007.5 hPa SW 9 km/h 12 km/h 64% 0.00 mm 305.91 W/m2
13:49 34.0 °C 26.0 °C 1007.5 hPa South 14 km/h 16 km/h 64% 0.00 mm 627.65 W/m2
13:54 34.0 °C 26.0 °C 1007.5 hPa SSW 12 km/h 16 km/h 64% 0.00 mm 618.82 W/m2
13:59 35.0 °C 26.0 °C 1007.5 hPa South 11 km/h 16 km/h 63% 0.00 mm 690.80 W/m2
14:04 35.0 °C 26.0 °C 1007.5 hPa South 12 km/h 16 km/h 64% 0.00 mm 380.58 W/m2
14:09 33.0 °C 26.0 °C 1007.5 hPa SSW 12 km/h 16 km/h 65% 0.00 mm 253.11 W/m2
14:14 33.0 °C 26.0 °C 1007.5 hPa SSW 9 km/h 12 km/h 65% 0.00 mm 558.41 W/m2
14:19 34.0 °C 26.0 °C 1007.1 hPa SW 12 km/h 16 km/h 64% 0.00 mm 642.02 W/m2
14:24 34.0 °C 26.0 °C 1007.1 hPa SSW 11 km/h 16 km/h 64% 0.00 mm 447.26 W/m2
14:29 34.0 °C 26.0 °C 1007.1 hPa ESE 10 km/h 16 km/h 64% 0.00 mm 263.46 W/m2
14:34 34.0 °C 26.0 °C 1007.1 hPa WSW 9 km/h 12 km/h 65% 0.00 mm 583.71 W/m2
14:39 33.0 °C 26.0 °C 1006.8 hPa West 10 km/h 12 km/h 64% 0.00 mm 533.09 W/m2
14:44 34.0 °C 26.0 °C 1006.8 hPa SW 10 km/h 16 km/h 64% 0.00 mm 524.38 W/m2
14:49 35.0 °C 26.0 °C 1007.1 hPa South 10 km/h 16 km/h 63% 0.00 mm 549.77 W/m2
14:54 34.0 °C 26.0 °C 1006.8 hPa West 10 km/h 16 km/h 63% 0.00 mm 541.33 W/m2
14:59 34.0 °C 26.0 °C 1006.8 hPa SW 10 km/h 12 km/h 64% 0.00 mm 506.71 W/m2
15:04 34.0 °C 26.0 °C 1006.8 hPa SSE 8 km/h 12 km/h 64% 0.00 mm 491.05 W/m2
15:09 34.0 °C 26.0 °C 1006.8 hPa WSW 10 km/h 16 km/h 64% 0.00 mm 515.74 W/m2
15:14 35.0 °C 26.0 °C 1006.8 hPa South 6 km/h 12 km/h 63% 0.00 mm 523.99 W/m2
15:19 35.0 °C 26.0 °C 1006.8 hPa WSW 12 km/h 16 km/h 63% 0.00 mm 501.06 W/m2
15:24 34.0 °C 26.0 °C 1006.8 hPa SSW 11 km/h 16 km/h 62% 0.00 mm 495.58 W/m2
15:27 34.0 °C 26.0 °C 1006.8 hPa South 9 km/h 12 km/h 62% 0.00 mm 492.37 W/m2
15:34 34.0 °C 25.0 °C 1006.8 hPa WNW 10 km/h 12 km/h 62% 0.00 mm 496.85 W/m2
15:39 34.0 °C 26.0 °C 1006.8 hPa SW 9 km/h 16 km/h 61% 0.00 mm 504.29 W/m2
15:44 34.0 °C 26.0 °C 1006.8 hPa SSW 21 km/h 24 km/h 65% 0.00 mm 292.60 W/m2
15:49 33.0 °C 25.0 °C 1006.8 hPa WNW 17 km/h 20 km/h 64% 0.00 mm 338.21 W/m2
15:54 33.0 °C 25.0 °C 1006.8 hPa WNW 18 km/h 20 km/h 64% 0.00 mm 201.24 W/m2
15:59 33.0 °C 25.0 °C 1006.8 hPa West 9 km/h 12 km/h 64% 0.00 mm 346.77 W/m2
16:04 33.0 °C 25.0 °C 1006.8 hPa NW 18 km/h 24 km/h 64% 0.00 mm 331.06 W/m2
16:09 33.0 °C 25.0 °C 1006.8 hPa NW 18 km/h 24 km/h 64% 0.00 mm 375.52 W/m2
16:14 33.0 °C 25.0 °C 1006.8 hPa NW 18 km/h 20 km/h 64% 0.00 mm 357.22 W/m2
16:19 33.0 °C 25.0 °C 1006.8 hPa NW 18 km/h 20 km/h 64% 0.00 mm 158.10 W/m2
16:24 32.0 °C 25.0 °C 1007.1 hPa NW 24 km/h 28 km/h 65% 0.00 mm 167.50 W/m2
16:29 32.0 °C 25.0 °C 1006.8 hPa NW 23 km/h 24 km/h 65% 0.00 mm 343.74 W/m2
16:34 33.0 °C 25.0 °C 1007.1 hPa NW 20 km/h 24 km/h 64% 0.00 mm 321.86 W/m2
16:39 33.0 °C 25.0 °C 1007.1 hPa NW 17 km/h 24 km/h 63% 0.00 mm 319.86 W/m2
16:44 33.0 °C 25.0 °C 1007.1 hPa NNW 16 km/h 20 km/h 63% 0.00 mm 291.11 W/m2
16:49 33.0 °C 25.0 °C 1007.1 hPa NNW 12 km/h 16 km/h 62% 0.00 mm 246.26 W/m2
16:54 33.0 °C 24.0 °C 1007.1 hPa NW 16 km/h 20 km/h 63% 0.00 mm 89.25 W/m2
16:59 32.0 °C 24.0 °C 1007.1 hPa NNW 15 km/h 24 km/h 64% 0.00 mm 63.68 W/m2
17:04 32.0 °C 25.0 °C 1007.1 hPa NW 19 km/h 24 km/h 65% 0.00 mm 59.44 W/m2
17:09 32.0 °C 25.0 °C 1007.5 hPa NW 22 km/h 24 km/h 66% 0.00 mm 59.53 W/m2
17:14 32.0 °C 25.0 °C 1007.5 hPa NW 21 km/h 24 km/h 66% 0.00 mm 61.55 W/m2
17:19 32.0 °C 25.0 °C 1007.5 hPa NW 17 km/h 20 km/h 66% 0.00 mm 56.64 W/m2
17:24 32.0 °C 24.0 °C 1007.5 hPa NNW 15 km/h 16 km/h 65% 0.00 mm 53.98 W/m2
17:29 32.0 °C 25.0 °C 1007.5 hPa NNW 14 km/h 20 km/h 66% 0.00 mm 48.58 W/m2
17:34 32.0 °C 24.0 °C 1007.5 hPa NW 15 km/h 20 km/h 66% 0.00 mm 43.79 W/m2
17:39 32.0 °C 24.0 °C 1007.5 hPa North 14 km/h 16 km/h 66% 0.00 mm 40.29 W/m2
17:44 32.0 °C 24.0 °C 1007.5 hPa NNW 13 km/h 16 km/h 65% 0.00 mm 34.59 W/m2
17:49 32.0 °C 24.0 °C 1007.8 hPa North 11 km/h 12 km/h 65% 0.00 mm 28.05 W/m2
17:54 32.0 °C 24.0 °C 1007.8 hPa NNW 11 km/h 16 km/h 66% 0.00 mm 17.86 W/m2
17:59 32.0 °C 24.0 °C 1007.8 hPa NNE 10 km/h 16 km/h 66% 0.00 mm 7.49 W/m2
18:04 32.0 °C 24.0 °C 1007.8 hPa NE 9 km/h 12 km/h 65% 0.00 mm 1.72 W/m2
18:09 32.0 °C 24.0 °C 1008.1 hPa NE 8 km/h 12 km/h 65% 0.00 mm 0.00 W/m2
18:14 32.0 °C 22.0 °C 1008.1 hPa East 5 km/h 8 km/h 57% 0.00 mm 0.00 W/m2
18:19 32.0 °C 22.0 °C 1008.1 hPa North 6 km/h 12 km/h 57% 0.00 mm 0.00 W/m2
18:24 32.0 °C 22.0 °C 1008.1 hPa SE 8 km/h 12 km/h 57% 0.00 mm 0.00 W/m2
18:29 32.0 °C 22.0 °C 1008.1 hPa SE 8 km/h 12 km/h 57% 0.00 mm 0.00 W/m2
18:34 31.0 °C 22.0 °C 1008.1 hPa South 10 km/h 16 km/h 58% 0.00 mm 0.00 W/m2
18:39 31.0 °C 22.0 °C 1008.1 hPa SE 8 km/h 12 km/h 59% 0.00 mm 0.00 W/m2
18:44 31.0 °C 22.0 °C 1008.1 hPa SE 9 km/h 12 km/h 59% 0.00 mm 0.00 W/m2
18:49 31.0 °C 22.0 °C 1008.5 hPa ENE 10 km/h 12 km/h 60% 0.00 mm 0.00 W/m2
18:54 31.0 °C 22.0 °C 1008.5 hPa ESE 6 km/h 8 km/h 60% 0.00 mm 0.00 W/m2
18:59 31.0 °C 22.0 °C 1008.8 hPa ESE 9 km/h 12 km/h 60% 0.00 mm 0.00 W/m2
19:04 31.0 °C 22.0 °C 1008.8 hPa North 9 km/h 12 km/h 61% 0.00 mm 0.00 W/m2
19:09 30.0 °C 22.0 °C 1008.5 hPa SE 10 km/h 12 km/h 60% 0.00 mm 0.00 W/m2
19:14 30.0 °C 22.0 °C 1008.5 hPa ESE 9 km/h 12 km/h 61% 0.00 mm 0.00 W/m2
19:19 30.0 °C 22.0 °C 1008.5 hPa SSE 10 km/h 12 km/h 61% 0.00 mm 0.00 W/m2
19:24 30.0 °C 22.0 °C 1008.8 hPa SE 6 km/h 12 km/h 61% 0.00 mm 0.00 W/m2
19:29 30.0 °C 22.0 °C 1008.8 hPa SSE 7 km/h 12 km/h 61% 0.00 mm 0.00 W/m2
19:34 30.0 °C 22.0 °C 1008.8 hPa East 6 km/h 12 km/h 61% 0.00 mm 0.00 W/m2
19:39 30.0 °C 22.0 °C 1008.8 hPa SE 6 km/h 8 km/h 61% 0.00 mm 0.00 W/m2
19:44 30.0 °C 22.0 °C 1008.8 hPa East 5 km/h 8 km/h 61% 0.00 mm 0.00 W/m2
19:49 30.0 °C 21.0 °C 1009.1 hPa ESE 12 km/h 12 km/h 61% 0.00 mm 0.00 W/m2
19:54 30.0 °C 21.0 °C 1008.8 hPa East 8 km/h 8 km/h 61% 0.00 mm 0.00 W/m2
19:59 30.0 °C 21.0 °C 1009.1 hPa East 6 km/h 8 km/h 61% 0.00 mm 0.00 W/m2
20:04 30.0 °C 21.0 °C 1009.1 hPa ENE 7 km/h 12 km/h 61% 0.00 mm 0.00 W/m2
20:09 30.0 °C 22.0 °C 1009.1 hPa South 3 km/h 4 km/h 62% 0.00 mm 0.00 W/m2
20:14 30.0 °C 22.0 °C 1009.1 hPa ESE 9 km/h 12 km/h 62% 0.00 mm 0.00 W/m2
20:19 30.0 °C 22.0 °C 1009.1 hPa SSE 2 km/h 8 km/h 62% 0.00 mm 0.00 W/m2
20:24 30.0 °C 21.0 °C 1009.1 hPa East 5 km/h 8 km/h 62% 0.00 mm 0.00 W/m2
20:29 30.0 °C 21.0 °C 1009.1 hPa ENE 5 km/h 8 km/h 62% 0.00 mm 0.00 W/m2
20:34 30.0 °C 21.0 °C 1009.1 hPa ESE 7 km/h 12 km/h 61% 0.00 mm 0.00 W/m2
20:39 29.0 °C 21.0 °C 1009.1 hPa SE 4 km/h 8 km/h 62% 0.00 mm 0.00 W/m2
20:44 29.0 °C 21.0 °C 1009.5 hPa SE 3 km/h 4 km/h 62% 0.00 mm 0.00 W/m2
20:49 29.0 °C 21.0 °C 1009.5 hPa SE 5 km/h 8 km/h 62% 0.00 mm 0.00 W/m2
20:54 29.0 °C 21.0 °C 1009.8 hPa SE 4 km/h 8 km/h 62% 0.00 mm 0.00 W/m2
20:59 29.0 °C 21.0 °C 1009.8 hPa NNW 3 km/h 8 km/h 62% 0.00 mm 0.00 W/m2
21:04 29.0 °C 21.0 °C 1009.8 hPa ESE 5 km/h 8 km/h 61% 0.00 mm 0.00 W/m2
21:09 29.0 °C 21.0 °C 1009.8 hPa East 3 km/h 4 km/h 62% 0.00 mm 0.00 W/m2
21:14 29.0 °C 21.0 °C 1009.8 hPa NE 3 km/h 4 km/h 62% 0.00 mm 0.00 W/m2
21:19 29.0 °C 21.0 °C 1009.8 hPa Calm   4 km/h 62% 0.00 mm 0.00 W/m2
21:24 29.0 °C 21.0 °C 1009.8 hPa ENE 2 km/h 4 km/h 62% 0.00 mm 0.00 W/m2
21:29 29.0 °C 21.0 °C 1009.8 hPa NE 8 km/h 8 km/h 62% 0.00 mm 0.00 W/m2
21:34 29.0 °C 21.0 °C 1009.8 hPa East 3 km/h 4 km/h 62% 0.00 mm 0.00 W/m2
21:39 29.0 °C 21.0 °C 1009.8 hPa East 4 km/h 8 km/h 62% 0.00 mm 0.00 W/m2
21:44 29.0 °C 21.0 °C 1009.8 hPa East 4 km/h 4 km/h 62% 0.00 mm 0.00 W/m2
21:49 29.0 °C 21.0 °C 1009.8 hPa ENE 3 km/h 4 km/h 62% 0.00 mm 0.00 W/m2
21:54 29.0 °C 21.0 °C 1009.8 hPa East 4 km/h 4 km/h 62% 0.00 mm 0.00 W/m2
21:59 29.0 °C 21.0 °C 1009.8 hPa SE 2 km/h 4 km/h 63% 0.00 mm 0.00 W/m2
22:04 29.0 °C 21.0 °C 1009.8 hPa East 4 km/h 4 km/h 63% 0.00 mm 0.00 W/m2
22:09 29.0 °C 21.0 °C 1010.2 hPa ESE 2 km/h 4 km/h 63% 0.00 mm 0.00 W/m2
22:14 29.0 °C 21.0 °C 1010.2 hPa ESE 3 km/h 8 km/h 63% 0.00 mm 0.00 W/m2
22:19 29.0 °C 21.0 °C 1010.2 hPa East 3 km/h 4 km/h 63% 0.00 mm 0.00 W/m2
22:24 29.0 °C 21.0 °C 1010.2 hPa ESE 2 km/h 4 km/h 63% 0.00 mm 0.00 W/m2
22:29 29.0 °C 21.0 °C 1010.2 hPa Calm     63% 0.00 mm 0.00 W/m2
22:34 29.0 °C 21.0 °C 1010.2 hPa Calm   4 km/h 64% 0.00 mm 0.00 W/m2
22:39 29.0 °C 21.0 °C 1010.5 hPa Calm   4 km/h 64% 0.00 mm 0.00 W/m2
22:44 29.0 °C 21.0 °C 1010.5 hPa Calm     64% 0.00 mm 0.00 W/m2
22:49 29.0 °C 21.0 °C 1010.2 hPa SSE 5 km/h 8 km/h 65% 0.00 mm 0.00 W/m2
22:54 28.0 °C 21.0 °C 1010.5 hPa SE 5 km/h 8 km/h 66% 0.00 mm 0.00 W/m2
22:59 28.0 °C 21.0 °C 1010.5 hPa SE 3 km/h 4 km/h 66% 0.00 mm 0.00 W/m2
23:04 28.0 °C 21.0 °C 1010.5 hPa SE 5 km/h 8 km/h 66% 0.00 mm 0.00 W/m2
23:09 28.0 °C 22.0 °C 1010.5 hPa SSE 4 km/h 4 km/h 67% 0.00 mm 0.00 W/m2
23:14 28.0 °C 22.0 °C 1010.5 hPa SE 5 km/h 8 km/h 67% 0.00 mm 0.00 W/m2
23:19 28.0 °C 22.0 °C 1010.5 hPa SSE 4 km/h 4 km/h 67% 0.00 mm 0.00 W/m2
23:24 28.0 °C 22.0 °C 1010.5 hPa SE 6 km/h 8 km/h 67% 0.00 mm 0.00 W/m2
23:29 28.0 °C 21.0 °C 1010.5 hPa SE 3 km/h 4 km/h 67% 0.00 mm 0.00 W/m2
23:34 28.0 °C 21.0 °C 1010.2 hPa ESE 5 km/h 8 km/h 67% 0.00 mm 0.00 W/m2
23:39 28.0 °C 21.0 °C 1010.2 hPa SE 6 km/h 8 km/h 67% 0.00 mm 0.00 W/m2
23:44 28.0 °C 22.0 °C 1010.2 hPa SE 1 km/h 4 km/h 68% 0.00 mm 0.00 W/m2
23:49 28.0 °C 22.0 °C 1010.2 hPa Calm     68% 0.00 mm 0.00 W/m2
23:54 28.0 °C 22.0 °C 1009.8 hPa Calm     68% 0.00 mm 0.00 W/m2
23:59 28.0 °C 22.0 °C 1009.8 hPa East 3 km/h 4 km/h 68% 0.00 mm 0.00 W/m2
PIMOHWEATHER Philippines
Compliments of Weather Underground - 2 mb